Погода в Жезкенте

Казахстан     50°55′12″N   81°23′37″E
темп.,
°C
ветер,
м/с
пор.,
м/с
влажн.,
%
обл.,
%
осадки,
мм/ч
давл.,
гПа
погр.,
м
2 марта, вт
вт200:00−1ююз81496100 2.9 1016736
03:00−1ююз81492100 0.6 1016567
06:00−2зюз4897100 1.4 1018416
09:00−4юз3695100 0.6 1019333
12:00−2зюз3593100 0.8 1018442
15:00−1зюз2498100 0.4 1017315
18:00−2ссв0298100 2.2 1015128
21:00−2ю1498100 2.3 1015238
3 марта, ср
ср300:00−5ссз4796100 4.3 1016262
03:00−8з359797 0.7 1017130
06:00−11зюз239697 0.8 102046
09:00−8юз4795100 0.5 1021371
12:00−8зюз5792100 1.1 1022615
15:00−9юз4789100 0.2 1023691
18:00−11ююз3492100 0.3 102573
21:00−14ю469049 0.0 102788
4 марта, чт
чт400:00−14ююв5108824 0.0 1028158
03:00−14ю5128640 0.0 1027238
06:00−13ю6147950 0.0 1028298
09:00−11ю81575100 0.0 1027374
12:00−8ю81573100 0.0 1027448
15:00−6ю8157787 0.0 1025524
18:00−6ю8167585 0.0 1025424
21:00−7ю81772100 0.0 1024367
5 марта, пт
пт500:00−8ю7186974 0.0 1023359
03:00−8ю7186860 0.0 1020404
06:00−6ю9198679 0.1 1019658
09:00−5ююз81593100 0.8 1018666
12:00−3ююз81394100 2.1 1020675
15:00−1з6993100 0.8 1024857
18:00−4юз5986100 0.9 1029439
21:00−8ю510870 0.0 1031170
6 марта, сб
сб600:00−8ю714820 0.0 1031313
03:00−8ю8168233 0.0 1029390
06:00−9ю8167956 0.0 1029356
09:00−8ю9167964 0.0 1028433
12:00−5ю9158057 0.0 1026632
15:00−2ююз8148327 0.0 1024760
18:00−4ю6148515 0.0 1024406
21:00−6ю512850 0.0 1025243